Time,TemperatureF,DewpointF,PressureIn,WindDirection,WindDirectionDegrees,WindSpeedMPH,WindSpeedGustMPH,Humidity,HourlyPrecipIn,Conditions,Clouds,dailyrainin,SoftwareType,DateUTC
2013-03-11 00:01:00,54.0,52.6,29.94,East,89,3.0,4.0,95,0.39,,,0.01,WeatherCatV1.02B3,2013-03-11 05:01:00,
2013-03-11 00:06:00,53.5,52.1,29.94,East,89,1.0,1.0,95,0.37,,,0.03,WeatherCatV1.02B3,2013-03-11 05:06:00,
2013-03-11 00:11:00,53.3,51.9,29.95,ENE,58,3.0,4.0,95,0.14,,,0.04,WeatherCatV1.02B3,2013-03-11 05:11:00,
2013-03-11 00:16:00,53.2,51.8,29.95,ENE,58,3.0,3.0,95,0.13,,,0.05,WeatherCatV1.02B3,2013-03-11 05:16:00,
2013-03-11 00:21:00,53.1,51.7,29.94,ENE,58,0.0,3.0,95,0.16,,,0.07,WeatherCatV1.02B3,2013-03-11 05:21:00,
2013-03-11 00:26:00,53.1,51.7,29.94,ENE,58,1.0,3.0,95,0.46,,,0.08,WeatherCatV1.02B3,2013-03-11 05:26:00,
2013-03-11 00:31:00,53.0,51.6,29.95,ENE,58,1.0,1.0,95,0.54,,,0.10,WeatherCatV1.02B3,2013-03-11 05:31:00,
2013-03-11 00:36:00,53.0,51.9,29.96,ENE,58,0.0,0.0,96,0.17,,,0.12,WeatherCatV1.02B3,2013-03-11 05:36:00,
2013-03-11 00:41:00,53.1,51.7,29.95,ENE,58,3.0,4.0,95,0.15,,,0.13,WeatherCatV1.02B3,2013-03-11 05:41:00,
2013-03-11 00:46:00,53.1,51.7,29.96,ENE,58,0.0,0.0,95,0.25,,,0.15,WeatherCatV1.02B3,2013-03-11 05:46:00,
2013-03-11 00:51:00,53.1,52.0,29.96,ENE,58,1.0,5.0,96,0.23,,,0.18,WeatherCatV1.02B3,2013-03-11 05:51:00,
2013-03-11 00:56:00,53.0,51.9,29.96,ENE,58,0.0,2.0,96,0.42,,,0.21,WeatherCatV1.02B3,2013-03-11 05:56:00,
2013-03-11 01:01:00,52.8,51.7,29.96,ENE,60,1.0,4.0,96,0.24,,,0.24,WeatherCatV1.02B3,2013-03-11 06:01:00,
2013-03-11 01:06:00,52.8,51.7,29.95,ENE,60,0.0,3.0,96,0.19,,,0.26,WeatherCatV1.02B3,2013-03-11 06:06:00,
2013-03-11 01:11:00,52.8,51.7,29.95,ENE,60,0.0,3.0,96,0.17,,,0.28,WeatherCatV1.02B3,2013-03-11 06:11:00,
2013-03-11 01:16:00,52.7,51.6,29.95,ENE,60,0.0,2.0,96,0.15,,,0.29,WeatherCatV1.02B3,2013-03-11 06:16:00,
2013-03-11 01:21:00,52.7,51.6,29.95,ENE,60,2.0,3.0,96,0.34,,,0.31,WeatherCatV1.02B3,2013-03-11 06:21:00,
2013-03-11 01:26:00,52.6,51.5,29.94,ENE,60,0.0,0.0,96,0.09,,,0.31,WeatherCatV1.02B3,2013-03-11 06:26:00,
2013-03-11 01:31:00,52.6,51.5,29.95,ENE,60,2.0,3.0,96,0.18,,,0.33,WeatherCatV1.02B3,2013-03-11 06:31:00,
2013-03-11 01:36:00,52.5,51.4,29.95,ENE,60,0.0,0.0,96,0.12,,,0.34,WeatherCatV1.02B3,2013-03-11 06:36:00,
2013-03-11 01:41:00,52.5,51.4,29.95,ENE,60,0.0,0.0,96,0.19,,,0.35,WeatherCatV1.02B3,2013-03-11 06:41:00,
2013-03-11 01:46:00,52.4,51.3,29.95,ENE,60,0.0,1.0,96,0.11,,,0.36,WeatherCatV1.02B3,2013-03-11 06:46:00,
2013-03-11 01:51:00,52.4,51.3,29.95,ENE,60,0.0,1.0,96,0.16,,,0.37,WeatherCatV1.02B3,2013-03-11 06:51:00,
2013-03-11 01:56:00,52.4,51.3,29.95,ENE,60,0.0,1.0,96,0.09,,,0.38,WeatherCatV1.02B3,2013-03-11 06:56:00,
2013-03-11 02:01:00,52.5,51.4,29.95,ENE,60,0.0,3.0,96,0.17,,,0.39,WeatherCatV1.02B3,2013-03-11 07:01:00,
2013-03-11 02:06:00,52.5,51.4,29.93,ENE,60,0.0,0.0,96,0.07,,,0.40,WeatherCatV1.02B3,2013-03-11 07:06:00,
2013-03-11 02:11:00,52.4,51.3,29.91,ENE,60,0.0,1.0,96,0.13,,,0.41,WeatherCatV1.02B3,2013-03-11 07:11:00,
2013-03-11 02:16:00,52.4,51.3,29.92,ENE,60,0.0,1.0,96,0.10,,,0.41,WeatherCatV1.02B3,2013-03-11 07:16:00,
2013-03-11 02:21:00,52.5,51.4,29.93,ENE,60,0.0,0.0,96,0.06,,,0.41,WeatherCatV1.02B3,2013-03-11 07:21:00,
2013-03-11 02:26:00,52.5,51.4,29.92,East,96,2.0,2.0,96,0.04,,,0.41,WeatherCatV1.02B3,2013-03-11 07:26:00,
2013-03-11 02:31:00,52.6,51.5,29.92,North,5,0.0,0.0,96,0.00,,,0.41,WeatherCatV1.02B3,2013-03-11 07:31:00,
2013-03-11 02:36:00,52.6,51.5,29.91,North,5,0.0,0.0,96,0.00,,,0.41,WeatherCatV1.02B3,2013-03-11 07:36:00,
2013-03-11 02:41:00,52.5,51.4,29.91,North,5,0.0,0.0,96,0.00,,,0.41,WeatherCatV1.02B3,2013-03-11 07:41:00,
2013-03-11 02:46:00,52.4,51.3,29.91,North,5,0.0,0.0,96,0.00,,,0.41,WeatherCatV1.02B3,2013-03-11 07:46:00,
2013-03-11 02:51:00,52.4,51.3,29.92,North,5,1.0,3.0,96,0.00,,,0.41,WeatherCatV1.02B3,2013-03-11 07:51:00,
2013-03-11 02:56:00,52.4,51.3,29.92,North,5,1.0,2.0,96,0.00,,,0.41,WeatherCatV1.02B3,2013-03-11 07:56:00,
2013-03-11 03:01:00,52.4,51.3,29.92,North,5,0.0,1.0,96,0.00,,,0.41,WeatherCatV1.02B3,2013-03-11 08:01:00,
2013-03-11 03:06:00,52.4,51.3,29.92,North,5,2.0,3.0,96,0.00,,,0.41,WeatherCatV1.02B3,2013-03-11 08:06:00,
2013-03-11 03:11:00,52.4,51.3,29.92,North,5,1.0,1.0,96,0.00,,,0.41,WeatherCatV1.02B3,2013-03-11 08:11:00,
2013-03-11 03:16:00,51.5,50.4,29.94,ESE,117,12.0,16.0,96,0.00,,,0.41,WeatherCatV1.02B3,2013-03-11 08:16:00,
2013-03-11 03:21:00,48.7,46.5,29.94,ENE,78,3.0,8.0,92,0.00,,,0.41,WeatherCatV1.02B3,2013-03-11 08:21:00,
2013-03-11 03:26:00,48.0,45.8,29.93,ENE,74,6.0,11.0,92,0.00,,,0.41,WeatherCatV1.02B3,2013-03-11 08:26:00,
2013-03-11 03:31:00,47.7,45.5,29.94,ENE,59,1.0,3.0,92,0.00,,,0.42,WeatherCatV1.02B3,2013-03-11 08:31:00,
2013-03-11 03:36:00,47.5,45.3,29.94,SSE,168,2.0,6.0,92,0.00,,,0.42,WeatherCatV1.02B3,2013-03-11 08:36:00,
2013-03-11 03:41:00,47.3,45.1,29.92,NE,55,4.0,6.0,92,0.07,,,0.43,WeatherCatV1.02B3,2013-03-11 08:41:00,
2013-03-11 03:46:00,47.0,44.8,29.95,ENE,76,3.0,13.0,92,0.06,,,0.43,WeatherCatV1.02B3,2013-03-11 08:46:00,
2013-03-11 03:51:00,46.9,44.7,29.94,East,92,4.0,8.0,92,0.04,,,0.44,WeatherCatV1.02B3,2013-03-11 08:51:00,
2013-03-11 03:56:00,46.6,44.7,29.94,NE,48,1.0,2.0,93,0.26,,,0.48,WeatherCatV1.02B3,2013-03-11 08:56:00,
2013-03-11 04:01:00,46.4,44.5,29.95,East,84,4.0,5.0,93,0.18,,,0.49,WeatherCatV1.02B3,2013-03-11 09:01:00,
2013-03-11 04:06:00,46.5,44.9,29.96,WSW,253,0.0,5.0,94,0.09,,,0.49,WeatherCatV1.02B3,2013-03-11 09:06:00,
2013-03-11 04:11:00,46.5,44.9,29.94,ENE,69,2.0,3.0,94,0.06,,,0.50,WeatherCatV1.02B3,2013-03-11 09:11:00,
2013-03-11 04:16:00,46.6,45.0,29.94,ENE,69,0.0,1.0,94,0.14,,,0.51,WeatherCatV1.02B3,2013-03-11 09:16:00,
2013-03-11 04:21:00,46.5,44.9,29.96,ENE,69,4.0,4.0,94,0.27,,,0.53,WeatherCatV1.02B3,2013-03-11 09:21:00,
2013-03-11 04:26:00,46.6,45.0,29.94,East,99,0.0,5.0,94,0.12,,,0.54,WeatherCatV1.02B3,2013-03-11 09:26:00,
2013-03-11 04:31:00,46.6,45.0,29.94,ENE,73,0.0,6.0,94,0.17,,,0.56,WeatherCatV1.02B3,2013-03-11 09:31:00,
2013-03-11 04:36:00,46.5,44.9,29.94,ENE,76,4.0,9.0,94,0.16,,,0.57,WeatherCatV1.02B3,2013-03-11 09:36:00,
2013-03-11 04:41:00,46.3,44.7,29.94,ENE,70,2.0,7.0,94,0.09,,,0.57,WeatherCatV1.02B3,2013-03-11 09:41:00,
2013-03-11 04:46:00,46.1,44.5,29.94,NE,41,3.0,7.0,94,0.07,,,0.58,WeatherCatV1.02B3,2013-03-11 09:46:00,
2013-03-11 04:51:00,46.0,44.4,29.95,ESE,117,6.0,6.0,94,0.07,,,0.58,WeatherCatV1.02B3,2013-03-11 09:51:00,
2013-03-11 04:56:00,46.0,44.4,29.95,East,87,5.0,7.0,94,0.05,,,0.59,WeatherCatV1.02B3,2013-03-11 09:56:00,
2013-03-11 05:01:00,46.1,44.5,29.94,East,94,1.0,2.0,94,0.14,,,0.60,WeatherCatV1.02B3,2013-03-11 10:01:00,
2013-03-11 05:06:00,46.0,44.4,29.95,East,82,1.0,5.0,94,0.10,,,0.61,WeatherCatV1.02B3,2013-03-11 10:06:00,
2013-03-11 05:11:00,46.0,44.4,29.95,ENE,61,1.0,4.0,94,0.20,,,0.62,WeatherCatV1.02B3,2013-03-11 10:11:00,
2013-03-11 05:16:00,46.0,44.4,29.96,ENE,61,2.0,3.0,94,0.14,,,0.63,WeatherCatV1.02B3,2013-03-11 10:16:00,
2013-03-11 05:21:00,45.8,44.2,29.96,ENE,65,3.0,6.0,94,0.18,,,0.65,WeatherCatV1.02B3,2013-03-11 10:21:00,
2013-03-11 05:26:00,45.5,43.9,29.97,ENE,66,5.0,8.0,94,0.09,,,0.65,WeatherCatV1.02B3,2013-03-11 10:26:00,
2013-03-11 05:31:00,45.4,43.8,29.96,ENE,61,0.0,2.0,94,0.05,,,0.65,WeatherCatV1.02B3,2013-03-11 10:31:00,
2013-03-11 05:36:00,45.4,43.8,29.96,NNE,30,1.0,2.0,94,0.04,,,0.65,WeatherCatV1.02B3,2013-03-11 10:36:00,
2013-03-11 05:41:00,45.3,43.7,29.96,East,94,1.0,4.0,94,0.00,,,0.66,WeatherCatV1.02B3,2013-03-11 10:41:00,
2013-03-11 05:46:00,45.1,43.2,29.96,ENE,65,0.0,6.0,93,0.00,,,0.66,WeatherCatV1.02B3,2013-03-11 10:46:00,
2013-03-11 05:51:00,45.1,43.2,29.97,NE,35,1.0,6.0,93,0.00,,,0.66,WeatherCatV1.02B3,2013-03-11 10:51:00,
2013-03-11 05:56:00,45.1,43.2,29.98,NE,36,1.0,3.0,93,0.00,,,0.66,WeatherCatV1.02B3,2013-03-11 10:56:00,
2013-03-11 06:01:00,45.0,43.1,29.97,NE,52,1.0,5.0,93,0.00,,,0.66,WeatherCatV1.02B3,2013-03-11 11:01:00,
2013-03-11 06:06:00,44.9,43.0,29.96,NE,52,1.0,2.0,93,0.00,,,0.66,WeatherCatV1.02B3,2013-03-11 11:06:00,
2013-03-11 06:11:00,44.9,43.0,29.96,NE,52,0.0,1.0,93,0.00,,,0.66,WeatherCatV1.02B3,2013-03-11 11:11:00,
2013-03-11 06:16:00,44.9,43.0,29.95,NE,52,1.0,1.0,93,0.00,,,0.66,WeatherCatV1.02B3,2013-03-11 11:16:00,
2013-03-11 06:21:00,44.9,43.0,29.96,NE,52,0.0,2.0,93,0.00,,,0.66,WeatherCatV1.02B3,2013-03-11 11:21:00,
2013-03-11 06:26:00,44.8,42.9,29.98,ENE,65,2.0,5.0,93,0.00,,,0.66,WeatherCatV1.02B3,2013-03-11 11:26:00,
2013-03-11 06:31:00,44.9,43.0,29.99,ENE,67,0.0,3.0,93,0.00,,,0.66,WeatherCatV1.02B3,2013-03-11 11:31:00,
2013-03-11 06:36:00,44.9,43.0,30.00,ENE,67,0.0,2.0,93,0.00,,,0.66,WeatherCatV1.02B3,2013-03-11 11:36:00,
2013-03-11 06:41:00,44.8,42.9,30.00,ENE,71,0.0,4.0,93,0.00,,,0.66,WeatherCatV1.02B3,2013-03-11 11:41:00,
2013-03-11 06:46:00,44.6,42.7,29.99,ENE,71,2.0,3.0,93,0.00,,,0.66,WeatherCatV1.02B3,2013-03-11 11:46:00,
2013-03-11 06:51:00,44.5,42.6,29.98,ENE,71,0.0,4.0,93,0.00,,,0.66,WeatherCatV1.02B3,2013-03-11 11:51:00,
2013-03-11 06:56:00,44.5,42.3,29.97,ENE,71,2.0,2.0,92,0.00,,,0.66,WeatherCatV1.02B3,2013-03-11 11:56:00,
2013-03-11 07:01:00,44.3,42.1,29.97,ENE,71,2.0,2.0,92,0.00,,,0.66,WeatherCatV1.02B3,2013-03-11 12:01:00,
2013-03-11 07:06:00,44.3,42.1,29.96,ENE,76,0.0,4.0,92,0.00,,,0.66,WeatherCatV1.02B3,2013-03-11 12:06:00,
2013-03-11 07:11:00,44.3,42.1,29.96,ENE,77,0.0,2.0,92,0.00,,,0.66,WeatherCatV1.02B3,2013-03-11 12:11:00,
2013-03-11 07:16:00,44.3,42.1,29.97,ENE,75,1.0,5.0,92,0.00,,,0.66,WeatherCatV1.02B3,2013-03-11 12:16:00,
2013-03-11 07:21:00,44.2,41.7,29.98,East,93,1.0,4.0,91,0.00,,,0.66,WeatherCatV1.02B3,2013-03-11 12:21:00,
2013-03-11 07:26:00,44.3,42.1,29.99,ENE,65,1.0,3.0,92,0.00,,,0.66,WeatherCatV1.02B3,2013-03-11 12:26:00,
2013-03-11 07:31:00,44.2,41.7,29.99,East,80,0.0,1.0,91,0.00,,,0.66,WeatherCatV1.02B3,2013-03-11 12:31:00,
2013-03-11 07:36:00,44.2,42.0,30.00,East,80,1.0,4.0,92,0.00,,,0.66,WeatherCatV1.02B3,2013-03-11 12:36:00,
2013-03-11 07:41:00,44.1,41.6,30.00,East,80,2.0,2.0,91,0.00,,,0.66,WeatherCatV1.02B3,2013-03-11 12:41:00,
2013-03-11 07:46:00,44.1,41.6,30.00,East,80,2.0,3.0,91,0.00,,,0.66,WeatherCatV1.02B3,2013-03-11 12:46:00,
2013-03-11 07:51:00,44.0,41.5,30.00,East,80,0.0,1.0,91,0.00,,,0.66,WeatherCatV1.02B3,2013-03-11 12:51:00,
2013-03-11 07:56:00,43.9,41.4,30.00,East,80,0.0,1.0,91,0.00,,,0.66,WeatherCatV1.02B3,2013-03-11 12:56:00,
2013-03-11 08:01:00,43.9,41.4,29.98,East,80,0.0,0.0,91,0.00,,,0.66,WeatherCatV1.02B3,2013-03-11 13:01:00,
2013-03-11 08:06:00,43.9,41.4,30.00,ENE,64,0.0,4.0,91,0.00,,,0.66,WeatherCatV1.02B3,2013-03-11 13:06:00,
2013-03-11 08:11:00,43.9,41.4,29.98,ENE,64,0.0,2.0,91,0.00,,,0.66,WeatherCatV1.02B3,2013-03-11 13:11:00,
2013-03-11 08:16:00,44.0,41.5,29.98,ENE,64,0.0,2.0,91,0.00,,,0.66,WeatherCatV1.02B3,2013-03-11 13:16:00,
2013-03-11 08:21:00,44.0,41.5,29.97,SE,130,0.0,6.0,91,0.00,,,0.66,WeatherCatV1.02B3,2013-03-11 13:21:00,
2013-03-11 08:26:00,44.0,41.5,29.96,SE,130,0.0,2.0,91,0.00,,,0.66,WeatherCatV1.02B3,2013-03-11 13:26:00,
2013-03-11 08:31:00,43.9,41.4,29.94,SE,130,1.0,1.0,91,0.00,,,0.66,WeatherCatV1.02B3,2013-03-11 13:31:00,
2013-03-11 08:36:00,43.9,41.4,29.94,ENE,73,5.0,5.0,91,0.00,,,0.66,WeatherCatV1.02B3,2013-03-11 13:36:00,
2013-03-11 08:41:00,43.9,40.9,29.97,ENE,64,3.0,6.0,89,0.00,,,0.66,WeatherCatV1.02B3,2013-03-11 13:41:00,
2013-03-11 08:46:00,44.0,40.7,29.99,ENE,67,3.0,5.0,88,0.00,,,0.66,WeatherCatV1.02B3,2013-03-11 13:46:00,
2013-03-11 08:51:00,44.0,40.7,29.98,ENE,78,0.0,3.0,88,0.00,,,0.66,WeatherCatV1.02B3,2013-03-11 13:51:00,
2013-03-11 08:56:00,44.0,40.4,29.99,ENE,65,0.0,4.0,87,0.00,,,0.66,WeatherCatV1.02B3,2013-03-11 13:56:00,
2013-03-11 09:01:00,44.1,40.8,29.96,SSW,196,3.0,3.0,88,0.00,,,0.66,WeatherCatV1.02B3,2013-03-11 14:01:00,
2013-03-11 09:06:00,44.0,40.4,29.97,SSW,196,0.0,2.0,87,0.00,,,0.66,WeatherCatV1.02B3,2013-03-11 14:06:00,
2013-03-11 09:11:00,44.1,40.5,29.97,ENE,68,1.0,4.0,87,0.00,,,0.66,WeatherCatV1.02B3,2013-03-11 14:11:00,
2013-03-11 09:16:00,44.2,40.6,29.97,ENE,74,0.0,2.0,87,0.00,,,0.66,WeatherCatV1.02B3,2013-03-11 14:16:00,
2013-03-11 09:21:00,44.2,40.3,29.99,ENE,59,3.0,4.0,86,0.00,,,0.66,WeatherCatV1.02B3,2013-03-11 14:21:00,
2013-03-11 09:26:00,44.3,40.1,29.99,NE,42,0.0,3.0,85,0.00,,,0.66,WeatherCatV1.02B3,2013-03-11 14:26:00,
2013-03-11 09:31:00,44.5,40.9,29.99,NE,44,0.0,1.0,87,0.00,,,0.66,WeatherCatV1.02B3,2013-03-11 14:31:00,
2013-03-11 09:36:00,44.5,40.6,30.01,East,79,2.0,5.0,86,0.00,,,0.66,WeatherCatV1.02B3,2013-03-11 14:36:00,
2013-03-11 09:41:00,44.6,40.4,30.00,ENE,57,1.0,2.0,85,0.00,,,0.66,WeatherCatV1.02B3,2013-03-11 14:41:00,
2013-03-11 09:46:00,44.5,40.6,30.00,ENE,74,1.0,1.0,86,0.00,,,0.66,WeatherCatV1.02B3,2013-03-11 14:46:00,
2013-03-11 09:51:00,44.5,40.6,30.00,NE,40,0.0,3.0,86,0.00,,,0.66,WeatherCatV1.02B3,2013-03-11 14:51:00,
2013-03-11 09:56:00,44.3,40.4,30.00,ENE,69,2.0,3.0,86,0.00,,,0.66,WeatherCatV1.02B3,2013-03-11 14:56:00,
2013-03-11 10:01:00,44.3,40.4,30.01,ENE,69,4.0,6.0,86,0.00,,,0.66,WeatherCatV1.02B3,2013-03-11 15:01:00,
2013-03-11 10:06:00,44.3,40.1,30.01,NNE,13,0.0,6.0,85,0.00,,,0.66,WeatherCatV1.02B3,2013-03-11 15:06:00,
2013-03-11 10:11:00,44.4,40.5,30.01,NNE,30,0.0,1.0,86,0.00,,,0.66,WeatherCatV1.02B3,2013-03-11 15:11:00,
2013-03-11 10:16:00,44.5,40.6,30.01,NE,35,0.0,3.0,86,0.00,,,0.66,WeatherCatV1.02B3,2013-03-11 15:16:00,
2013-03-11 10:21:00,44.6,40.7,30.01,ENE,64,2.0,7.0,86,0.00,,,0.66,WeatherCatV1.02B3,2013-03-11 15:21:00,
2013-03-11 10:26:00,44.7,40.2,30.01,ENE,61,2.0,8.0,84,0.00,,,0.66,WeatherCatV1.02B3,2013-03-11 15:26:00,
2013-03-11 10:31:00,44.9,40.4,30.02,ENE,69,2.0,8.0,84,0.00,,,0.66,WeatherCatV1.02B3,2013-03-11 15:31:00,
2013-03-11 10:36:00,45.0,40.5,30.01,East,92,4.0,6.0,84,0.00,,,0.66,WeatherCatV1.02B3,2013-03-11 15:36:00,
2013-03-11 10:41:00,44.9,39.7,30.01,ENE,70,7.0,8.0,82,0.00,,,0.66,WeatherCatV1.02B3,2013-03-11 15:41:00,
2013-03-11 10:46:00,45.0,39.8,30.02,SE,140,0.0,5.0,82,0.00,,,0.66,WeatherCatV1.02B3,2013-03-11 15:46:00,
2013-03-11 10:51:00,45.3,40.4,30.01,ENE,70,0.0,4.0,83,0.00,,,0.66,WeatherCatV1.02B3,2013-03-11 15:51:00,
2013-03-11 10:56:00,45.4,40.2,30.02,ENE,78,0.0,4.0,82,0.00,,,0.66,WeatherCatV1.02B3,2013-03-11 15:56:00,
2013-03-11 11:01:00,45.6,40.7,30.03,ENE,57,1.0,3.0,83,0.00,,,0.66,WeatherCatV1.02B3,2013-03-11 16:01:00,
2013-03-11 11:06:00,45.6,40.4,30.02,ENE,68,0.0,5.0,82,0.00,,,0.66,WeatherCatV1.02B3,2013-03-11 16:06:00,
2013-03-11 11:11:00,45.6,40.4,30.03,ENE,65,0.0,3.0,82,0.00,,,0.66,WeatherCatV1.02B3,2013-03-11 16:11:00,
2013-03-11 11:16:00,45.6,40.4,30.02,ENE,65,1.0,1.0,82,0.00,,,0.66,WeatherCatV1.02B3,2013-03-11 16:16:00,
2013-03-11 11:21:00,45.8,40.6,30.02,ENE,65,0.0,2.0,82,0.00,,,0.66,WeatherCatV1.02B3,2013-03-11 16:21:00,
2013-03-11 11:26:00,46.0,40.8,30.02,ENE,65,0.0,1.0,82,0.00,,,0.66,WeatherCatV1.02B3,2013-03-11 16:26:00,
2013-03-11 11:31:00,45.9,40.1,30.02,ENE,65,1.0,4.0,80,0.00,,,0.66,WeatherCatV1.02B3,2013-03-11 16:31:00,
2013-03-11 11:36:00,45.9,40.1,30.02,ENE,67,2.0,5.0,80,0.00,,,0.66,WeatherCatV1.02B3,2013-03-11 16:36:00,
2013-03-11 11:41:00,45.9,40.1,30.01,ENE,78,0.0,4.0,80,0.00,,,0.66,WeatherCatV1.02B3,2013-03-11 16:41:00,
2013-03-11 11:46:00,46.0,40.2,30.01,ENE,78,1.0,3.0,80,0.00,,,0.66,WeatherCatV1.02B3,2013-03-11 16:46:00,
2013-03-11 11:51:00,46.0,39.9,30.01,ESE,117,0.0,6.0,79,0.00,,,0.66,WeatherCatV1.02B3,2013-03-11 16:51:00,
2013-03-11 11:56:00,46.3,40.1,30.00,ENE,73,1.0,3.0,79,0.00,,,0.66,WeatherCatV1.02B3,2013-03-11 16:56:00,
2013-03-11 12:01:00,46.9,41.1,30.00,ESE,106,5.0,6.0,80,0.00,,,0.66,WeatherCatV1.02B3,2013-03-11 17:01:00,
2013-03-11 12:06:00,46.9,40.1,30.00,ENE,71,2.0,6.0,77,0.00,,,0.66,WeatherCatV1.02B3,2013-03-11 17:06:00,
2013-03-11 12:11:00,47.2,40.0,30.00,ENE,78,1.0,8.0,76,0.00,,,0.66,WeatherCatV1.02B3,2013-03-11 17:11:00,
2013-03-11 12:16:00,47.7,40.5,30.00,East,85,2.0,4.0,76,0.00,,,0.66,WeatherCatV1.02B3,2013-03-11 17:16:00,
2013-03-11 12:21:00,48.4,41.2,30.00,ENE,65,2.0,8.0,76,0.00,,,0.66,WeatherCatV1.02B3,2013-03-11 17:21:00,
2013-03-11 12:26:00,49.3,41.4,30.00,SSW,192,3.0,8.0,74,0.00,,,0.66,WeatherCatV1.02B3,2013-03-11 17:26:00,
2013-03-11 12:31:00,49.7,42.4,30.00,SSE,153,5.0,11.0,76,0.00,,,0.66,WeatherCatV1.02B3,2013-03-11 17:31:00,
2013-03-11 12:36:00,50.3,41.6,29.99,East,80,1.0,5.0,72,0.00,,,0.66,WeatherCatV1.02B3,2013-03-11 17:36:00,
2013-03-11 12:41:00,50.3,42.0,29.99,South,184,2.0,6.0,73,0.00,,,0.66,WeatherCatV1.02B3,2013-03-11 17:41:00,
2013-03-11 12:46:00,49.8,41.5,29.98,WNW,298,0.0,4.0,73,0.00,,,0.66,WeatherCatV1.02B3,2013-03-11 17:46:00,
2013-03-11 12:52:00,49.6,41.3,29.98,SE,127,1.0,7.0,73,0.00,,,0.66,WeatherCatV1.02B3,2013-03-11 17:52:00,
2013-03-11 12:57:00,50.4,42.4,29.98,East,94,0.0,9.0,74,0.00,,,0.66,WeatherCatV1.02B3,2013-03-11 17:57:00,
2013-03-11 13:02:00,51.2,42.8,29.98,ENE,75,3.0,6.0,73,0.00,,,0.66,WeatherCatV1.02B3,2013-03-11 18:02:00,
2013-03-11 13:07:00,50.9,41.5,29.98,NNE,12,1.0,4.0,70,0.00,,,0.66,WeatherCatV1.02B3,2013-03-11 18:07:00,
2013-03-11 13:12:00,50.7,41.6,29.98,NE,41,3.0,12.0,71,0.00,,,0.66,WeatherCatV1.02B3,2013-03-11 18:12:00,
2013-03-11 13:17:00,51.0,41.2,29.98,ENE,57,3.0,4.0,69,0.00,,,0.66,WeatherCatV1.02B3,2013-03-11 18:17:00,
2013-03-11 13:22:00,52.2,42.3,29.97,East,94,0.0,7.0,69,0.00,,,0.66,WeatherCatV1.02B3,2013-03-11 18:22:00,
2013-03-11 13:27:00,52.4,42.2,29.97,SSE,168,7.0,7.0,68,0.00,,,0.66,WeatherCatV1.02B3,2013-03-11 18:27:00,
2013-03-11 13:32:00,52.8,42.1,29.97,East,92,4.0,6.0,67,0.00,,,0.66,WeatherCatV1.02B3,2013-03-11 18:32:00,
2013-03-11 13:37:00,53.4,42.3,29.97,ESE,119,0.0,4.0,66,0.00,,,0.66,WeatherCatV1.02B3,2013-03-11 18:37:00,
2013-03-11 13:42:00,53.8,42.7,29.97,ENE,68,4.0,10.0,66,0.00,,,0.66,WeatherCatV1.02B3,2013-03-11 18:42:00,
2013-03-11 13:47:00,53.1,41.2,29.97,East,98,2.0,7.0,64,0.00,,,0.66,WeatherCatV1.02B3,2013-03-11 18:47:00,
2013-03-11 13:52:00,53.8,41.9,29.97,NE,50,3.0,7.0,64,0.00,,,0.66,WeatherCatV1.02B3,2013-03-11 18:52:00,
2013-03-11 13:57:00,53.9,42.0,29.97,South,175,5.0,7.0,64,0.00,,,0.66,WeatherCatV1.02B3,2013-03-11 18:57:00,
2013-03-11 14:02:00,54.5,41.7,29.97,ENE,71,0.0,4.0,62,0.00,,,0.66,WeatherCatV1.02B3,2013-03-11 19:02:00,
2013-03-11 14:07:00,54.8,41.6,29.96,East,86,1.0,5.0,61,0.00,,,0.66,WeatherCatV1.02B3,2013-03-11 19:07:00,
2013-03-11 14:12:00,54.2,41.9,29.96,SE,144,1.0,10.0,63,0.00,,,0.66,WeatherCatV1.02B3,2013-03-11 19:12:00,
2013-03-11 14:17:00,54.4,41.2,29.97,NW,313,1.0,8.0,61,0.00,,,0.66,WeatherCatV1.02B3,2013-03-11 19:17:00,
2013-03-11 14:22:00,54.6,41.4,29.97,ENE,63,3.0,8.0,61,0.00,,,0.66,WeatherCatV1.02B3,2013-03-11 19:22:00,
2013-03-11 14:27:00,55.1,43.1,29.96,ENE,60,0.0,3.0,64,0.00,,,0.66,WeatherCatV1.02B3,2013-03-11 19:27:00,
2013-03-11 14:32:00,55.2,42.0,29.96,SSE,154,1.0,10.0,61,0.00,,,0.66,WeatherCatV1.02B3,2013-03-11 19:32:00,
2013-03-11 14:37:00,55.4,43.4,29.96,South,172,5.0,7.0,64,0.00,,,0.66,WeatherCatV1.02B3,2013-03-11 19:37:00,
2013-03-11 14:42:00,55.5,41.0,29.96,SSE,163,5.0,13.0,58,0.00,,,0.66,WeatherCatV1.02B3,2013-03-11 19:42:00,
2013-03-11 14:47:00,55.1,42.3,29.96,SSE,165,0.0,7.0,62,0.00,,,0.66,WeatherCatV1.02B3,2013-03-11 19:47:00,
2013-03-11 14:52:00,55.2,41.1,29.96,South,184,6.0,8.0,59,0.00,,,0.66,WeatherCatV1.02B3,2013-03-11 19:52:00,
2013-03-11 14:57:00,55.1,41.0,29.96,NNE,23,2.0,13.0,59,0.00,,,0.66,WeatherCatV1.02B3,2013-03-11 19:57:00,
2013-03-11 15:02:00,54.9,40.4,29.96,East,95,0.0,7.0,58,0.00,,,0.66,WeatherCatV1.02B3,2013-03-11 20:02:00,
2013-03-11 15:07:00,54.8,40.3,29.95,SSW,192,4.0,12.0,58,0.00,,,0.66,WeatherCatV1.02B3,2013-03-11 20:07:00,
2013-03-11 15:12:00,55.3,39.9,29.96,South,180,1.0,8.0,56,0.00,,,0.66,WeatherCatV1.02B3,2013-03-11 20:12:00,
2013-03-11 15:17:00,54.8,39.9,29.95,East,90,0.0,7.0,57,0.00,,,0.66,WeatherCatV1.02B3,2013-03-11 20:17:00,
2013-03-11 15:22:00,54.8,39.4,29.95,NE,38,1.0,5.0,56,0.00,,,0.66,WeatherCatV1.02B3,2013-03-11 20:22:00,
2013-03-11 15:27:00,55.1,39.7,29.96,SSE,153,4.0,16.0,56,0.00,,,0.66,WeatherCatV1.02B3,2013-03-11 20:27:00,
2013-03-11 15:32:00,54.6,38.8,29.95,NNW,348,1.0,3.0,55,0.00,,,0.66,WeatherCatV1.02B3,2013-03-11 20:32:00,
2013-03-11 15:37:00,54.5,39.6,29.95,SSE,166,8.0,13.0,57,0.00,,,0.66,WeatherCatV1.02B3,2013-03-11 20:37:00,
2013-03-11 15:42:00,54.8,39.4,29.95,South,175,8.0,14.0,56,0.00,,,0.66,WeatherCatV1.02B3,2013-03-11 20:42:00,
2013-03-11 15:47:00,54.9,40.8,29.96,SSE,148,1.0,7.0,59,0.00,,,0.66,WeatherCatV1.02B3,2013-03-11 20:47:00,
2013-03-11 15:52:00,54.4,38.6,29.96,ENE,64,8.0,8.0,55,0.00,,,0.66,WeatherCatV1.02B3,2013-03-11 20:52:00,
2013-03-11 15:57:00,54.4,39.9,29.95,ESE,119,5.0,7.0,58,0.00,,,0.66,WeatherCatV1.02B3,2013-03-11 20:57:00,
2013-03-11 16:02:00,54.9,39.5,29.95,SSE,158,2.0,8.0,56,0.00,,,0.66,WeatherCatV1.02B3,2013-03-11 21:02:00,
2013-03-11 16:07:00,54.7,38.9,29.96,NW,316,2.0,13.0,55,0.00,,,0.66,WeatherCatV1.02B3,2013-03-11 21:07:00,
2013-03-11 16:12:00,54.7,39.3,29.95,South,190,5.0,10.0,56,0.00,,,0.66,WeatherCatV1.02B3,2013-03-11 21:12:00,
2013-03-11 16:17:00,54.9,40.0,29.95,South,174,9.0,13.0,57,0.00,,,0.66,WeatherCatV1.02B3,2013-03-11 21:17:00,
2013-03-11 16:22:00,54.8,38.9,29.95,ENE,78,6.0,11.0,55,0.00,,,0.66,WeatherCatV1.02B3,2013-03-11 21:22:00,
2013-03-11 16:27:00,54.5,38.7,29.95,NW,323,2.0,14.0,55,0.00,,,0.66,WeatherCatV1.02B3,2013-03-11 21:27:00,
2013-03-11 16:32:00,54.6,37.8,29.96,East,88,0.0,5.0,53,0.00,,,0.66,WeatherCatV1.02B3,2013-03-11 21:32:00,
2013-03-11 16:37:00,54.7,38.9,29.95,South,183,3.0,6.0,55,0.00,,,0.66,WeatherCatV1.02B3,2013-03-11 21:37:00,
2013-03-11 16:42:00,55.2,40.2,29.95,South,182,0.0,4.0,57,0.00,,,0.66,WeatherCatV1.02B3,2013-03-11 21:42:00,
2013-03-11 16:47:00,55.2,39.8,29.95,North,5,1.0,6.0,56,0.00,,,0.66,WeatherCatV1.02B3,2013-03-11 21:47:00,
2013-03-11 16:52:00,54.5,39.1,29.96,ENE,76,0.0,4.0,56,0.00,,,0.66,WeatherCatV1.02B3,2013-03-11 21:52:00,
2013-03-11 16:57:00,54.2,39.7,29.95,South,180,3.0,7.0,58,0.00,,,0.66,WeatherCatV1.02B3,2013-03-11 21:57:00,
2013-03-11 17:02:00,54.3,39.4,29.95,South,169,13.0,13.0,57,0.00,,,0.66,WeatherCatV1.02B3,2013-03-11 22:02:00,
2013-03-11 17:07:00,54.3,38.5,29.95,ENE,67,0.0,5.0,55,0.00,,,0.66,WeatherCatV1.02B3,2013-03-11 22:07:00,
2013-03-11 17:12:00,54.1,38.8,29.96,NE,34,0.0,5.0,56,0.00,,,0.66,WeatherCatV1.02B3,2013-03-11 22:12:00,
2013-03-11 17:17:00,54.2,38.8,29.95,NNE,30,1.0,4.0,56,0.00,,,0.66,WeatherCatV1.02B3,2013-03-11 22:17:00,
2013-03-11 17:22:00,53.9,38.6,29.96,ESE,107,1.0,7.0,56,0.00,,,0.66,WeatherCatV1.02B3,2013-03-11 22:22:00,
2013-03-11 17:27:00,54.1,38.3,29.96,ENE,65,0.0,5.0,55,0.00,,,0.66,WeatherCatV1.02B3,2013-03-11 22:27:00,
2013-03-11 17:32:00,53.9,38.6,29.96,East,100,6.0,9.0,56,0.00,,,0.66,WeatherCatV1.02B3,2013-03-11 22:32:00,
2013-03-11 17:37:00,53.5,37.7,29.96,SE,144,5.0,8.0,55,0.00,,,0.66,WeatherCatV1.02B3,2013-03-11 22:37:00,
2013-03-11 17:42:00,53.2,38.4,29.96,ESE,105,2.0,5.0,57,0.00,,,0.66,WeatherCatV1.02B3,2013-03-11 22:42:00,
2013-03-11 17:47:00,53.1,38.3,29.96,ESE,105,2.0,4.0,57,0.00,,,0.66,WeatherCatV1.02B3,2013-03-11 22:47:00,
2013-03-11 17:52:00,53.2,38.8,29.96,ENE,65,6.0,7.0,58,0.00,,,0.66,WeatherCatV1.02B3,2013-03-11 22:52:00,
2013-03-11 17:57:00,53.0,39.1,29.96,North,355,0.0,1.0,59,0.00,,,0.66,WeatherCatV1.02B3,2013-03-11 22:57:00,
2013-03-11 18:02:00,52.9,38.1,29.97,East,80,1.0,4.0,57,0.00,,,0.66,WeatherCatV1.02B3,2013-03-11 23:02:00,
2013-03-11 18:07:00,52.8,38.4,29.97,ENE,72,0.0,6.0,58,0.00,,,0.66,WeatherCatV1.02B3,2013-03-11 23:07:00,
2013-03-11 18:12:00,52.6,38.2,29.97,ENE,61,0.0,4.0,58,0.00,,,0.66,WeatherCatV1.02B3,2013-03-11 23:12:00,
2013-03-11 18:17:00,52.5,39.0,29.97,SSE,147,1.0,6.0,60,0.00,,,0.66,WeatherCatV1.02B3,2013-03-11 23:17:00,
2013-03-11 18:22:00,52.4,38.9,29.97,East,80,1.0,3.0,60,0.00,,,0.66,WeatherCatV1.02B3,2013-03-11 23:22:00,
2013-03-11 18:27:00,52.2,38.7,29.98,East,95,0.0,5.0,60,0.00,,,0.66,WeatherCatV1.02B3,2013-03-11 23:27:00,
2013-03-11 18:32:00,52.1,38.6,29.97,East,98,2.0,4.0,60,0.00,,,0.66,WeatherCatV1.02B3,2013-03-11 23:32:00,
2013-03-11 18:37:00,51.9,38.0,29.98,ENE,65,4.0,6.0,59,0.00,,,0.66,WeatherCatV1.02B3,2013-03-11 23:37:00,
2013-03-11 18:42:00,51.6,38.2,29.98,SSW,195,1.0,4.0,60,0.00,,,0.66,WeatherCatV1.02B3,2013-03-11 23:42:00,
2013-03-11 18:47:00,51.4,38.0,29.98,ENE,78,0.0,5.0,60,0.00,,,0.66,WeatherCatV1.02B3,2013-03-11 23:47:00,
2013-03-11 18:52:00,51.3,37.9,29.98,SSW,213,0.0,2.0,60,0.00,,,0.66,WeatherCatV1.02B3,2013-03-11 23:52:00,
2013-03-11 18:57:00,51.2,38.2,29.98,SSE,160,0.0,10.0,61,0.00,,,0.66,WeatherCatV1.02B3,2013-03-11 23:57:00,
2013-03-11 19:02:00,50.9,37.9,29.99,South,184,0.0,4.0,61,0.00,,,0.66,WeatherCatV1.02B3,2013-03-12 00:02:00,
2013-03-11 19:07:00,50.8,37.8,29.99,North,0,0.0,1.0,61,0.00,,,0.66,WeatherCatV1.02B3,2013-03-12 00:07:00,
2013-03-11 19:12:00,50.6,38.1,29.99,SSE,152,0.0,0.0,62,0.00,,,0.66,WeatherCatV1.02B3,2013-03-12 00:12:00,
2013-03-11 19:17:00,50.4,38.3,29.99,ENE,60,0.0,2.0,63,0.00,,,0.66,WeatherCatV1.02B3,2013-03-12 00:17:00,
2013-03-11 19:22:00,50.2,38.9,30.00,SSE,159,0.0,7.0,65,0.00,,,0.66,WeatherCatV1.02B3,2013-03-12 00:22:00,
2013-03-11 19:27:00,50.1,38.8,30.00,SE,136,1.0,1.0,65,0.00,,,0.66,WeatherCatV1.02B3,2013-03-12 00:27:00,
2013-03-11 19:32:00,50.0,38.7,30.00,SSE,168,1.0,4.0,65,0.00,,,0.66,WeatherCatV1.02B3,2013-03-12 00:32:00,
2013-03-11 19:37:00,49.8,38.9,30.00,SE,135,1.0,5.0,66,0.00,,,0.66,WeatherCatV1.02B3,2013-03-12 00:37:00,
2013-03-11 19:42:00,49.6,38.7,30.00,SSE,155,4.0,5.0,66,0.00,,,0.66,WeatherCatV1.02B3,2013-03-12 00:42:00,
2013-03-11 19:47:00,49.4,38.9,30.00,ENE,68,0.0,4.0,67,0.00,,,0.66,WeatherCatV1.02B3,2013-03-12 00:47:00,
2013-03-11 19:52:00,49.4,39.3,30.00,SSE,151,0.0,5.0,68,0.00,,,0.66,WeatherCatV1.02B3,2013-03-12 00:52:00,
2013-03-11 19:57:00,49.1,39.0,30.01,SSE,165,2.0,6.0,68,0.00,,,0.66,WeatherCatV1.02B3,2013-03-12 00:57:00,
2013-03-11 20:02:00,49.0,38.9,30.01,SE,140,1.0,6.0,68,0.00,,,0.66,WeatherCatV1.02B3,2013-03-12 01:02:00,
2013-03-11 20:07:00,48.9,39.2,30.01,SE,140,0.0,0.0,69,0.00,,,0.66,WeatherCatV1.02B3,2013-03-12 01:07:00,
2013-03-11 20:12:00,48.7,39.0,30.02,South,170,4.0,6.0,69,0.00,,,0.66,WeatherCatV1.02B3,2013-03-12 01:12:00,
2013-03-11 20:17:00,48.7,39.0,30.02,SSE,161,1.0,2.0,69,0.00,,,0.66,WeatherCatV1.02B3,2013-03-12 01:17:00,
2013-03-11 20:22:00,48.5,38.8,30.02,SSE,150,0.0,1.0,69,0.00,,,0.66,WeatherCatV1.02B3,2013-03-12 01:22:00,
2013-03-11 20:27:00,48.5,39.2,30.03,SSE,153,0.0,0.0,70,0.00,,,0.66,WeatherCatV1.02B3,2013-03-12 01:27:00,
2013-03-11 20:32:00,48.3,39.0,30.03,SSE,153,0.0,0.0,70,0.00,,,0.66,WeatherCatV1.02B3,2013-03-12 01:32:00,
2013-03-11 20:37:00,48.2,39.2,30.03,SSE,153,0.0,0.0,71,0.00,,,0.66,WeatherCatV1.02B3,2013-03-12 01:37:00,
2013-03-11 20:42:00,48.1,39.1,30.03,SSE,153,0.0,1.0,71,0.00,,,0.66,WeatherCatV1.02B3,2013-03-12 01:42:00,
2013-03-11 20:47:00,47.9,39.3,30.03,SSE,153,0.0,0.0,72,0.00,,,0.66,WeatherCatV1.02B3,2013-03-12 01:47:00,
2013-03-11 20:52:00,47.6,39.0,30.03,SSE,153,0.0,1.0,72,0.00,,,0.66,WeatherCatV1.02B3,2013-03-12 01:52:00,
2013-03-11 20:57:00,47.4,39.2,30.04,SSE,153,0.0,0.0,73,0.00,,,0.66,WeatherCatV1.02B3,2013-03-12 01:57:00,
2013-03-11 21:02:00,47.2,39.3,30.04,SSE,153,0.0,0.0,74,0.00,,,0.66,WeatherCatV1.02B3,2013-03-12 02:02:00,
2013-03-11 21:07:00,47.0,39.1,30.04,SSE,153,0.0,0.0,74,0.00,,,0.66,WeatherCatV1.02B3,2013-03-12 02:07:00,
2013-03-11 21:12:00,46.9,39.1,30.04,SSE,153,0.0,1.0,74,0.00,,,0.66,WeatherCatV1.02B3,2013-03-12 02:12:00,
2013-03-11 21:17:00,46.7,39.2,30.05,SSE,153,0.0,0.0,75,0.00,,,0.66,WeatherCatV1.02B3,2013-03-12 02:17:00,
2013-03-11 21:22:00,46.6,39.1,30.05,South,172,0.0,6.0,75,0.00,,,0.66,WeatherCatV1.02B3,2013-03-12 02:22:00,
2013-03-11 21:27:00,46.5,39.0,30.05,South,172,0.0,0.0,75,0.00,,,0.66,WeatherCatV1.02B3,2013-03-12 02:27:00,
2013-03-11 21:32:00,46.5,39.3,30.05,South,172,0.0,2.0,76,0.00,,,0.66,WeatherCatV1.02B3,2013-03-12 02:32:00,
2013-03-11 21:37:00,46.4,39.3,30.05,South,172,0.0,0.0,76,0.00,,,0.66,WeatherCatV1.02B3,2013-03-12 02:37:00,
2013-03-11 21:42:00,46.2,39.1,30.05,South,172,0.0,1.0,76,0.00,,,0.66,WeatherCatV1.02B3,2013-03-12 02:42:00,
2013-03-11 21:47:00,46.1,39.3,30.05,South,172,0.0,0.0,77,0.00,,,0.66,WeatherCatV1.02B3,2013-03-12 02:47:00,
2013-03-11 21:52:00,45.9,39.1,30.06,South,172,0.0,0.0,77,0.00,,,0.66,WeatherCatV1.02B3,2013-03-12 02:52:00,
2013-03-11 21:57:00,45.7,39.2,30.06,South,172,0.0,0.0,78,0.00,,,0.66,WeatherCatV1.02B3,2013-03-12 02:57:00,
2013-03-11 22:02:00,45.5,39.0,30.06,South,172,0.0,0.0,78,0.00,,,0.66,WeatherCatV1.02B3,2013-03-12 03:02:00,
2013-03-11 22:07:00,45.3,38.9,30.06,South,172,0.0,0.0,78,0.00,,,0.66,WeatherCatV1.02B3,2013-03-12 03:07:00,
2013-03-11 22:12:00,45.1,39.0,30.06,South,172,0.0,0.0,79,0.00,,,0.66,WeatherCatV1.02B3,2013-03-12 03:12:00,
2013-03-11 22:17:00,44.9,38.8,30.06,South,172,0.0,0.0,79,0.00,,,0.66,WeatherCatV1.02B3,2013-03-12 03:17:00,
2013-03-11 22:22:00,44.6,38.5,30.06,South,172,0.0,0.0,79,0.00,,,0.66,WeatherCatV1.02B3,2013-03-12 03:22:00,
2013-03-11 22:27:00,44.4,38.3,30.06,South,172,0.0,0.0,79,0.00,,,0.66,WeatherCatV1.02B3,2013-03-12 03:27:00,
2013-03-11 22:32:00,44.2,38.4,30.07,South,172,0.0,0.0,80,0.00,,,0.66,WeatherCatV1.02B3,2013-03-12 03:32:00,
2013-03-11 22:37:00,44.0,38.2,30.07,South,172,0.0,0.0,80,0.00,,,0.66,WeatherCatV1.02B3,2013-03-12 03:37:00,
2013-03-11 22:42:00,43.8,38.4,30.07,South,172,0.0,0.0,81,0.00,,,0.66,WeatherCatV1.02B3,2013-03-12 03:42:00,
2013-03-11 22:47:00,43.6,38.5,30.07,South,172,0.0,0.0,82,0.00,,,0.66,WeatherCatV1.02B3,2013-03-12 03:47:00,
2013-03-11 22:52:00,43.4,38.3,30.07,South,172,0.0,0.0,82,0.00,,,0.66,WeatherCatV1.02B3,2013-03-12 03:52:00,
2013-03-11 22:57:00,43.2,38.4,30.07,South,172,0.0,0.0,83,0.00,,,0.66,WeatherCatV1.02B3,2013-03-12 03:57:00,
2013-03-11 23:00:00,43.1,38.3,30.07,South,172,0.0,0.0,83,0.00,,,0.66,WeatherCatV1.02B3,2013-03-12 04:00:00,
2013-03-11 23:01:00,43.1,38.6,30.07,South,172,0.0,0.0,84,0.00,,,0.66,WeatherCatV1.02B3,2013-03-12 04:01:00,
2013-03-11 23:06:00,42.9,38.4,30.07,South,172,0.0,0.0,84,0.00,,,0.66,WeatherCatV1.02B3,2013-03-12 04:06:00,
2013-03-11 23:11:00,42.8,38.6,30.07,South,172,0.0,0.0,85,0.00,,,0.66,WeatherCatV1.02B3,2013-03-12 04:11:00,
2013-03-11 23:16:00,42.7,38.5,30.07,South,172,0.0,0.0,85,0.00,,,0.66,WeatherCatV1.02B3,2013-03-12 04:16:00,
2013-03-11 23:21:00,42.6,38.7,30.07,South,172,0.0,0.0,86,0.00,,,0.66,WeatherCatV1.02B3,2013-03-12 04:21:00,
2013-03-11 23:26:00,42.4,38.5,30.07,South,172,0.0,0.0,86,0.00,,,0.66,WeatherCatV1.02B3,2013-03-12 04:26:00,
2013-03-11 23:31:00,42.3,38.4,30.07,South,172,0.0,0.0,86,0.00,,,0.66,WeatherCatV1.02B3,2013-03-12 04:31:00,
2013-03-11 23:36:00,42.1,38.5,30.07,South,172,0.0,0.0,87,0.00,,,0.66,WeatherCatV1.02B3,2013-03-12 04:36:00,
2013-03-11 23:41:00,41.9,38.3,30.07,South,172,0.0,0.0,87,0.00,,,0.66,WeatherCatV1.02B3,2013-03-12 04:41:00,
2013-03-11 23:46:00,41.7,38.1,30.07,South,172,0.0,0.0,87,0.00,,,0.66,WeatherCatV1.02B3,2013-03-12 04:46:00,
2013-03-11 23:51:00,41.5,37.9,30.07,South,172,0.0,0.0,87,0.00,,,0.66,WeatherCatV1.02B3,2013-03-12 04:51:00,
2013-03-11 23:56:00,41.4,37.8,30.07,South,172,0.0,0.0,87,0.00,,,0.66,WeatherCatV1.02B3,2013-03-12 04:56:00,